Flag for Poland Weather past 2 weeks in Katowice, Poland

Now
70 °F

Passing clouds.


Feels Like: 70 °F
Forecast: 55 / 72 °F
Wind: 3 mph from South

Location: Katowice Airport

Current Time: Aug 30, 2014 at 8:44:41 PM

Latest Report: Aug 30, 2014 at 7:30 PM


Visibility: N/A

Pressure: 30.04 "Hg

Humidity: 64%

Dew point: 57 °F

Location of KatowiceLocation

Historic Weather in Katowice — Graph

°F

Katowice temperature yesterday

Maximum temperature yesterday: 72 °F (at 2:30 PM)
Minimum temperature yesterday: 45 °F (at 1:30 AM)
Average temperature yesterday: 60 °F

Past Weeks' High & Low Weather Summary

 TemperatureHumidityPressure
High73 °F (Aug 18, 1:00 PM)100% (Aug 20, 12:30 AM)30.09 "Hg (Aug 20, 12:30 AM)
Low43 °F (Aug 22, 4:30 AM)38% (Aug 29, 4:30 PM)29.74 "Hg (Aug 26, 12:00 PM)
Average59 °F77%29.96 "Hg
* Reported Aug 15 7:00 PM — Aug 30 7:00 PM, Katowice, Weather by CustomWeather, © 2014

Note: Actual official high and low records may vary slightly from our data, if they occured in-between our weather recording intervals... More about our weather records

Advertising

Katowice weather history for previous 24 hours

 ConditionsComfort  
Time TempWeatherWind HumidityBarometerVisibility
7:00 PM
Aug 30
70 °FPassing clouds.2 mph60%30.04 "HgN/A
6:30 PM72 °FPassing clouds.3 mph53%30.04 "HgN/A
6:00 PM72 °FPassing clouds.7 mph53%30.04 "HgN/A
5:30 PM72 °FPassing clouds.8 mph53%30.04 "HgN/A
5:00 PM73 °FPassing clouds.6 mph50%30.04 "HgN/A
4:30 PM73 °FScattered clouds.7 mph57%30.04 "HgN/A
4:00 PM72 °FPassing clouds.9 mph57%30.04 "HgN/A
3:30 PM72 °FPassing clouds.9 mph61%30.04 "HgN/A
3:00 PM72 °FPassing clouds.6 mph61%30.04 "HgN/A
2:30 PM70 °FPassing clouds.7 mph69%30.07 "HgN/A
2:00 PM70 °FScattered clouds.8 mph69%30.07 "HgN/A
1:30 PM70 °FScattered clouds.7 mph69%30.07 "HgN/A
1:00 PM70 °FScattered clouds.7 mph69%30.07 "HgN/A
12:30 PM68 °FScattered clouds.9 mph69%30.07 "HgN/A
12:00 PM68 °FScattered clouds.8 mph73%30.07 "HgN/A
11:30 AM66 °FPartly sunny.9 mph78%30.07 "HgN/A
11:00 AM68 °FPartly sunny.6 mph73%30.07 "HgN/A
10:30 AM66 °FScattered clouds.7 mph78%30.07 "HgN/A
10:00 AM64 °FPassing clouds.6 mph83%30.07 "HgN/A
9:30 AM63 °FScattered clouds.7 mph83%30.07 "HgN/A
9:00 AM63 °FPartly sunny.6 mph83%30.07 "HgN/A
8:30 AM63 °FPassing clouds.8 mph83%30.07 "HgN/A
8:00 AM63 °FSunny.6 mph83%30.04 "Hg10 mi
7:30 AM59 °FPassing clouds.2 mph88%30.04 "HgN/A
7:00 AM59 °FSunny.1 mph88%30.04 "Hg10 mi
6:30 AM59 °FClear.2 mph88%30.04 "Hg10 mi
6:00 AM59 °FPassing clouds.2 mph88%30.04 "HgN/A
5:30 AM59 °FPassing clouds.5 mph88%30.04 "HgN/A
5:00 AM61 °FLight rain. Passing clouds.5 mph83%30.04 "HgN/A
4:30 AM61 °FLight rain. Passing clouds.3 mph83%30.04 "HgN/A
4:00 AM61 °FLight rain. Passing clouds.5 mph83%30.04 "HgN/A
3:30 AM61 °FLight rain. Passing clouds.6 mph88%30.04 "HgN/A
3:00 AM61 °FLight rain. Clear.7 mph83%30.04 "HgN/A
2:30 AM63 °FLight rain. Passing clouds.7 mph73%30.04 "HgN/A
2:00 AM63 °FClear.5 mph73%30.04 "Hg10 mi
1:30 AM63 °FClear.3 mph73%30.04 "Hg10 mi
1:00 AM63 °FClear.2 mph73%30.04 "Hg10 mi
12:30 AM63 °FClear.3 mph73%30.04 "Hg10 mi
12:00 AM63 °FClear.3 mph68%30.04 "Hg10 mi
11:30 PM
Aug 29
63 °FPassing clouds.3 mph73%30.04 "HgN/A
11:00 PM64 °FPassing clouds.5 mph64%30.04 "HgN/A
9:00 PM66 °FPassing clouds.5 mph60%30.04 "HgN/A
8:30 PM66 °FPassing clouds.3 mph60%30.04 "HgN/A
8:00 PM66 °FPassing clouds.3 mph60%30.04 "HgN/A
Weather by CustomWeather, © 2014

See weather overviewHow to use our weather pages